owner,sensor,date,latitude,longitude,vertical_datum,wind_speed,wind_to_direction,wind_speed_of_gust,qcFlag 
ADCP,ioos:station:wmo:42369:1,2014-05-01T00:00:00Z,27.2070,-90.2830,60.4,5.9,347.0,99.0,'11111222,11111222,11144222' 
ADCP,ioos:station:wmo:42369:1,2014-05-01T00:20:00Z,27.2070,-90.2830,60.4,5.9,347.0,99.0,'11111222,11111222,11144222' 
ADCP,ioos:station:wmo:42369:1,2014-05-01T00:40:00Z,27.2070,-90.2830,60.4,5.9,347.0,99.0,'11111222,11111222,11144222' 
ADCP,ioos:station:wmo:42369:1,2014-05-01T01:00:00Z,27.2070,-90.2830,60.4,5.9,347.0,99.0,'11111222,11111222,11144222' 
ADCP,ioos:station:wmo:42369:1,2014-05-01T01:20:00Z,27.2070,-90.2830,60.4,8.7,326.0,99.0,'11111222,11111222,11144222' 
ADCP,ioos:station:wmo:42369:1,2014-05-01T01:40:00Z,27.2070,-90.2830,60.4,8.6,327.0,99.0,'11111222,11111222,11144222' 
ADCP,ioos:station:wmo:42369:1,2014-05-01T02:00:00Z,27.2070,-90.2830,60.4,8.6,327.0,99.0,'11111222,11111222,11144222' 
ADCP,ioos:station:wmo:42369:1,2014-05-01T02:20:00Z,27.2070,-90.2830,60.4,8.5,332.0,99.0,'11111222,11111222,11144222' 
ADCP,ioos:station:wmo:42369:1,2014-05-01T02:40:00Z,27.2070,-90.2830,60.4,8.5,332.0,99.0,'11111222,11111222,11144222' 
ADCP,ioos:station:wmo:42369:1,2014-05-01T03:00:00Z,27.2070,-90.2830,60.4,8.5,332.0,99.0,'11111222,11111222,11144222' 
ADCP,ioos:station:wmo:42369:1,2014-05-01T03:20:00Z,27.2070,-90.2830,60.4,8.5,332.0,99.0,'11111222,11111222,11144222' 
ADCP,ioos:station:wmo:42369:1,2014-05-01T03:40:00Z,27.2070,-90.2830,60.4,7.5,341.0,99.0,'11111222,11111222,11144222' 
ADCP,ioos:station:wmo:42369:1,2014-05-01T04:00:00Z,27.2070,-90.2830,60.4,7.0,343.0,99.0,'11111222,11111222,11144222' 
ADCP,ioos:station:wmo:42369:1,2014-05-01T04:20:00Z,27.2070,-90.2830,60.4,7.5,347.0,99.0,'11111222,11111222,11144222' 
ADCP,ioos:station:wmo:42369:1,2014-05-01T04:40:00Z,27.2070,-90.2830,60.4,7.5,347.0,99.0,'11111222,11111222,11144222' 
ADCP,ioos:station:wmo:42369:1,2014-05-01T05:00:00Z,27.2070,-90.2830,60.4,7.1,349.0,99.0,'11111222,11111222,11144222' 
ADCP,ioos:station:wmo:42369:1,2014-05-01T05:20:00Z,27.2070,-90.2830,60.4,6.9,341.0,99.0,'11111222,11111222,11144222' 
ADCP,ioos:station:wmo:42369:1,2014-05-01T05:40:00Z,27.2070,-90.2830,60.4,6.9,341.0,99.0,'11111222,11111222,11144222' 
ADCP,ioos:station:wmo:42369:1,2014-05-01T06:00:00Z,27.2070,-90.2830,60.4,6.9,341.0,99.0,'11111222,11111222,11144222' 
ADCP,ioos:station:wmo:42369:1,2014-05-01T06:20:00Z,27.2070,-90.2830,60.4,8.1,337.0,99.0,'11111222,11111222,11144222' 
ADCP,ioos:station:wmo:42369:1,2014-05-01T06:40:00Z,27.2070,-90.2830,60.4,7.8,338.0,99.0,'11111222,11111222,11144222' 
ADCP,ioos:station:wmo:42369:1,2014-05-01T07:00:00Z,27.2070,-90.2830,60.4,7.8,338.0,99.0,'11111222,11111222,11144222' 
ADCP,ioos:station:wmo:42369:1,2014-05-01T07:20:00Z,27.2070,-90.2830,60.4,8.6,339.0,99.0,'11111222,11111222,11144222' 
ADCP,ioos:station:wmo:42369:1,2014-05-01T07:40:00Z,27.2070,-90.2830,60.4,8.7,341.0,99.0,'11111222,11111222,11144222' 
ADCP,ioos:station:wmo:42369:1,2014-05-01T08:00:00Z,27.2070,-90.2830,60.4,8.7,341.0,99.0,'11111222,11111222,11144222' 
ADCP,ioos:station:wmo:42369:1,2014-05-01T08:20:00Z,27.2070,-90.2830,60.4,8.1,343.0,99.0,'11111222,11111222,11144222' 
ADCP,ioos:station:wmo:42369:1,2014-05-01T08:40:00Z,27.2070,-90.2830,60.4,8.8,343.0,99.0,'11111222,11111222,11144222' 
ADCP,ioos:station:wmo:42369:1,2014-05-01T09:00:00Z,27.2070,-90.2830,60.4,8.8,343.0,99.0,'11111222,11111222,11144222' 
ADCP,ioos:station:wmo:42369:1,2014-05-01T09:20:00Z,27.2070,-90.2830,60.4,7.9,338.0,99.0,'11111222,11111222,11144222' 
ADCP,ioos:station:wmo:42369:1,2014-05-01T09:40:00Z,27.2070,-90.2830,60.4,10.0,340.0,99.0,'11111222,11111222,11144222' 
ADCP,ioos:station:wmo:42369:1,2014-05-01T10:00:00Z,27.2070,-90.2830,60.4,10.5,346.0,99.0,'11111222,11111222,11144222' 
ADCP,ioos:station:wmo:42369:1,2014-05-01T10:20:00Z,27.2070,-90.2830,60.4,10.7,347.0,99.0,'11111222,11111222,11144222' 
ADCP,ioos:station:wmo:42369:1,2014-05-01T10:40:00Z,27.2070,-90.2830,60.4,10.7,347.0,99.0,'11111222,11111222,11144222' 
ADCP,ioos:station:wmo:42369:1,2014-05-01T11:00:00Z,27.2070,-90.2830,60.4,10.7,347.0,99.0,'11111222,11111222,11144222' 
ADCP,ioos:station:wmo:42369:1,2014-05-01T11:20:00Z,27.2070,-90.2830,60.4,14.7,331.0,99.0,'11111222,11111222,11144222' 
ADCP,ioos:station:wmo:42369:1,2014-05-01T11:40:00Z,27.2070,-90.2830,60.4,14.7,331.0,99.0,'11111222,11111222,11144222' 
ADCP,ioos:station:wmo:42369:1,2014-05-01T12:00:00Z,27.2070,-90.2830,60.4,14.7,331.0,99.0,'11111222,11111222,11144222' 
ADCP,ioos:station:wmo:42369:1,2014-05-01T12:20:00Z,27.2070,-90.2830,60.4,14.7,331.0,99.0,'11111222,11111222,11144222' 
ADCP,ioos:station:wmo:42369:1,2014-05-01T12:40:00Z,27.2070,-90.2830,60.4,14.7,331.0,99.0,'11111222,11111222,11144222' 
ADCP,ioos:station:wmo:42369:1,2014-05-01T13:00:00Z,27.2070,-90.2830,60.4,14.7,331.0,99.0,'11111222,11111222,11144222' 
ADCP,ioos:station:wmo:42369:1,2014-05-01T13:20:00Z,27.2070,-90.2830,60.4,12.0,327.0,99.0,'11111222,11111222,11144222' 
ADCP,ioos:station:wmo:42369:1,2014-05-01T13:40:00Z,27.2070,-90.2830,60.4,9.5,334.0,99.0,'11111222,11111222,11144222' 
ADCP,ioos:station:wmo:42369:1,2014-05-01T14:00:00Z,27.2070,-90.2830,60.4,8.2,213.0,99.0,'11111222,11111222,11144222' 
ADCP,ioos:station:wmo:42369:1,2014-05-01T14:20:00Z,27.2070,-90.2830,60.4,8.2,213.0,99.0,'11111222,11111222,11144222' 
ADCP,ioos:station:wmo:42369:1,2014-05-01T14:40:00Z,27.2070,-90.2830,60.4,9.1,110.0,99.0,'11111222,11111222,11144222' 
ADCP,ioos:station:wmo:42369:1,2014-05-01T15:00:00Z,27.2070,-90.2830,60.4,10.6,307.0,99.0,'11111222,11111222,11144222' 
ADCP,ioos:station:wmo:42369:1,2014-05-01T15:20:00Z,27.2070,-90.2830,60.4,10.6,307.0,99.0,'11111222,11111222,11144222' 
ADCP,ioos:station:wmo:42369:1,2014-05-01T15:40:00Z,27.2070,-90.2830,60.4,11.7,165.0,99.0,'11111222,11111222,11144222' 
ADCP,ioos:station:wmo:42369:1,2014-05-01T16:00:00Z,27.2070,-90.2830,60.4,12.5,229.0,99.0,'11111222,11111222,11144222' 
ADCP,ioos:station:wmo:42369:1,2014-05-01T16:20:00Z,27.2070,-90.2830,60.4,12.5,229.0,99.0,'11111222,11111222,11144222' 
ADCP,ioos:station:wmo:42369:1,2014-05-01T16:40:00Z,27.2070,-90.2830,60.4,10.5,273.0,99.0,'11111222,11111222,11144222' 
ADCP,ioos:station:wmo:42369:1,2014-05-01T17:00:00Z,27.2070,-90.2830,60.4,9.6,242.0,99.0,'11111222,11111222,11144222' 
ADCP,ioos:station:wmo:42369:1,2014-05-01T17:20:00Z,27.2070,-90.2830,60.4,12.3,349.0,99.0,'11111222,11111222,11144222' 
ADCP,ioos:station:wmo:42369:1,2014-05-01T17:40:00Z,27.2070,-90.2830,60.4,12.3,349.0,99.0,'11111222,11111222,11144222' 
ADCP,ioos:station:wmo:42369:1,2014-05-01T18:00:00Z,27.2070,-90.2830,60.4,12.3,349.0,99.0,'11111222,11111222,11144222' 
ADCP,ioos:station:wmo:42369:1,2014-05-01T18:20:00Z,27.2070,-90.2830,60.4,9.7,38.0,99.0,'11111222,11111222,11144222' 
ADCP,ioos:station:wmo:42369:1,2014-05-01T18:40:00Z,27.2070,-90.2830,60.4,9.6,108.0,99.0,'11111222,11111222,11144222' 
ADCP,ioos:station:wmo:42369:1,2014-05-01T19:00:00Z,27.2070,-90.2830,60.4,9.6,108.0,99.0,'11111222,11111222,11144222' 
ADCP,ioos:station:wmo:42369:1,2014-05-01T19:20:00Z,27.2070,-90.2830,60.4,9.6,15.0,99.0,'11111222,11111222,11144222' 
ADCP,ioos:station:wmo:42369:1,2014-05-01T19:40:00Z,27.2070,-90.2830,60.4,9.6,15.0,99.0,'11111222,11111222,11144222' 
ADCP,ioos:station:wmo:42369:1,2014-05-01T20:00:00Z,27.2070,-90.2830,60.4,9.4,10.0,99.0,'11111222,11111222,11144222' 
ADCP,ioos:station:wmo:42369:1,2014-05-01T20:20:00Z,27.2070,-90.2830,60.4,9.4,10.0,99.0,'11111222,11111222,11144222' 
ADCP,ioos:station:wmo:42369:1,2014-05-01T20:40:00Z,27.2070,-90.2830,60.4,9.4,10.0,99.0,'11111222,11111222,11144222' 
ADCP,ioos:station:wmo:42369:1,2014-05-01T21:00:00Z,27.2070,-90.2830,60.4,9.8,169.0,99.0,'11111222,11111222,11144222' 
ADCP,ioos:station:wmo:42369:1,2014-05-01T21:20:00Z,27.2070,-90.2830,60.4,9.8,169.0,99.0,'11111222,11111222,11144222' 
ADCP,ioos:station:wmo:42369:1,2014-05-01T21:40:00Z,27.2070,-90.2830,60.4,9.8,169.0,99.0,'11111222,11111222,11144222' 
ADCP,ioos:station:wmo:42369:1,2014-05-01T22:00:00Z,27.2070,-90.2830,60.4,9.8,169.0,99.0,'11111222,11111222,11144222' 
ADCP,ioos:station:wmo:42369:1,2014-05-01T22:20:00Z,27.2070,-90.2830,60.4,9.8,169.0,99.0,'11111222,11111222,11144222' 
ADCP,ioos:station:wmo:42369:1,2014-05-01T22:40:00Z,27.2070,-90.2830,60.4,9.0,322.0,99.0,'11111222,11111222,11144222' 
ADCP,ioos:station:wmo:42369:1,2014-05-01T23:00:00Z,27.2070,-90.2830,60.4,9.0,322.0,99.0,'11111222,11111222,11144222' 
ADCP,ioos:station:wmo:42369:1,2014-05-01T23:20:00Z,27.2070,-90.2830,60.4,8.7,339.0,99.0,'11111222,11111222,11144222' 
ADCP,ioos:station:wmo:42369:1,2014-05-01T23:40:00Z,27.2070,-90.2830,60.4,8.7,339.0,99.0,'11111222,11111222,11144222' 
ADCP,ioos:station:wmo:42369:1,2014-05-02T00:00:00Z,27.2070,-90.2830,60.4,7.8,321.0,99.0,'11111222,11111222,11144222' 
ADCP,ioos:station:wmo:42369:1,2014-05-02T00:20:00Z,27.2070,-90.2830,60.4,7.9,346.0,99.0,'11111222,11111222,11144222' 
ADCP,ioos:station:wmo:42369:1,2014-05-02T00:40:00Z,27.2070,-90.2830,60.4,7.9,346.0,99.0,'11111222,11111222,11144222' 
ADCP,ioos:station:wmo:42369:1,2014-05-02T01:00:00Z,27.2070,-90.2830,60.4,7.6,332.0,99.0,'11111222,11111222,11144222' 
ADCP,ioos:station:wmo:42369:1,2014-05-02T01:20:00Z,27.2070,-90.2830,60.4,7.6,332.0,99.0,'11111222,11111222,11144222' 
ADCP,ioos:station:wmo:42369:1,2014-05-02T01:40:00Z,27.2070,-90.2830,60.4,8.1,318.0,99.0,'11111222,11111222,11144222' 
ADCP,ioos:station:wmo:42369:1,2014-05-02T02:00:00Z,27.2070,-90.2830,60.4,7.0,325.0,99.0,'11111222,11111222,11144222' 
ADCP,ioos:station:wmo:42369:1,2014-05-02T02:20:00Z,27.2070,-90.2830,60.4,7.0,325.0,99.0,'11111222,11111222,11144222' 
ADCP,ioos:station:wmo:42369:1,2014-05-02T02:40:00Z,27.2070,-90.2830,60.4,7.0,325.0,99.0,'11111222,11111222,11144222' 
ADCP,ioos:station:wmo:42369:1,2014-05-02T03:00:00Z,27.2070,-90.2830,60.4,5.5,51.0,99.0,'11111222,11111222,11144222' 
ADCP,ioos:station:wmo:42369:1,2014-05-02T03:20:00Z,27.2070,-90.2830,60.4,5.5,51.0,99.0,'11111222,11111222,11144222' 
ADCP,ioos:station:wmo:42369:1,2014-05-02T03:40:00Z,27.2070,-90.2830,60.4,5.2,33.0,99.0,'11111222,11111222,11144222' 
ADCP,ioos:station:wmo:42369:1,2014-05-02T04:00:00Z,27.2070,-90.2830,60.4,5.7,36.0,99.0,'11111222,11111222,11144222' 
ADCP,ioos:station:wmo:42369:1,2014-05-02T04:20:00Z,27.2070,-90.2830,60.4,6.7,32.0,99.0,'11111222,11111222,11144222' 
ADCP,ioos:station:wmo:42369:1,2014-05-02T04:40:00Z,27.2070,-90.2830,60.4,6.3,32.0,99.0,'11111222,11111222,11144222' 
ADCP,ioos:station:wmo:42369:1,2014-05-02T05:00:00Z,27.2070,-90.2830,60.4,6.3,32.0,99.0,'11111222,11111222,11144222' 
ADCP,ioos:station:wmo:42369:1,2014-05-02T05:20:00Z,27.2070,-90.2830,60.4,5.7,27.0,99.0,'11111222,11111222,11144222' 
ADCP,ioos:station:wmo:42369:1,2014-05-02T05:40:00Z,27.2070,-90.2830,60.4,5.7,27.0,99.0,'11111222,11111222,11144222' 
ADCP,ioos:station:wmo:42369:1,2014-05-02T06:00:00Z,27.2070,-90.2830,60.4,6.8,231.0,99.0,'11111222,11111222,11144222' 
ADCP,ioos:station:wmo:42369:1,2014-05-02T06:20:00Z,27.2070,-90.2830,60.4,6.8,231.0,99.0,'11111222,11111222,11144222' 
ADCP,ioos:station:wmo:42369:1,2014-05-02T06:40:00Z,27.2070,-90.2830,60.4,6.8,231.0,99.0,'11111222,11111222,11144222' 
ADCP,ioos:station:wmo:42369:1,2014-05-02T07:00:00Z,27.2070,-90.2830,60.4,6.8,231.0,99.0,'11111222,11111222,11144222' 
ADCP,ioos:station:wmo:42369:1,2014-05-02T07:20:00Z,27.2070,-90.2830,60.4,7.4,93.0,99.0,'11111222,11111222,11144222' 
ADCP,ioos:station:wmo:42369:1,2014-05-02T07:40:00Z,27.2070,-90.2830,60.4,7.4,93.0,99.0,'11111222,11111222,11144222' 
ADCP,ioos:station:wmo:42369:1,2014-05-02T08:00:00Z,27.2070,-90.2830,60.4,9.3,338.0,99.0,'11111222,11111222,11144222' 
ADCP,ioos:station:wmo:42369:1,2014-05-02T08:20:00Z,27.2070,-90.2830,60.4,10.1,341.0,99.0,'11111222,11111222,11144222' 
ADCP,ioos:station:wmo:42369:1,2014-05-02T08:40:00Z,27.2070,-90.2830,60.4,10.4,327.0,99.0,'11111222,11111222,11144222' 
ADCP,ioos:station:wmo:42369:1,2014-05-02T09:00:00Z,27.2070,-90.2830,60.4,10.4,327.0,99.0,'11111222,11111222,11144222' 
ADCP,ioos:station:wmo:42369:1,2014-05-02T09:20:00Z,27.2070,-90.2830,60.4,11.0,340.0,99.0,'11111222,11111222,11144222' 
ADCP,ioos:station:wmo:42369:1,2014-05-02T09:40:00Z,27.2070,-90.2830,60.4,11.0,340.0,99.0,'11111222,11111222,11144222' 
ADCP,ioos:station:wmo:42369:1,2014-05-02T10:00:00Z,27.2070,-90.2830,60.4,8.7,339.0,99.0,'11111222,11111222,11144222' 
ADCP,ioos:station:wmo:42369:1,2014-05-02T10:20:00Z,27.2070,-90.2830,60.4,8.2,211.0,99.0,'11111222,11111222,11144222' 
ADCP,ioos:station:wmo:42369:1,2014-05-02T10:40:00Z,27.2070,-90.2830,60.4,8.2,203.0,99.0,'11111222,11111222,11144222' 
ADCP,ioos:station:wmo:42369:1,2014-05-02T11:00:00Z,27.2070,-90.2830,60.4,9.1,186.0,99.0,'11111222,11111222,11144222' 
ADCP,ioos:station:wmo:42369:1,2014-05-02T11:20:00Z,27.2070,-90.2830,60.4,8.1,180.0,99.0,'11111222,11111222,11144222' 
ADCP,ioos:station:wmo:42369:1,2014-05-02T11:40:00Z,27.2070,-90.2830,60.4,8.1,180.0,99.0,'11111222,11111222,11144222' 
ADCP,ioos:station:wmo:42369:1,2014-05-02T12:00:00Z,27.2070,-90.2830,60.4,8.1,180.0,99.0,'11111222,11111222,11144222' 
ADCP,ioos:station:wmo:42369:1,2014-05-02T12:20:00Z,27.2070,-90.2830,60.4,8.6,114.0,99.0,'11111222,11111222,11144222' 
ADCP,ioos:station:wmo:42369:1,2014-05-02T12:40:00Z,27.2070,-90.2830,60.4,8.6,114.0,99.0,'11111222,11111222,11144222' 
ADCP,ioos:station:wmo:42369:1,2014-05-02T13:00:00Z,27.2070,-90.2830,60.4,9.0,128.0,99.0,'11111222,11111222,11144222' 
ADCP,ioos:station:wmo:42369:1,2014-05-02T13:20:00Z,27.2070,-90.2830,60.4,9.0,128.0,99.0,'11111222,11111222,11144222' 
ADCP,ioos:station:wmo:42369:1,2014-05-02T13:40:00Z,27.2070,-90.2830,60.4,8.2,62.0,99.0,'11111222,11111222,11144222' 
ADCP,ioos:station:wmo:42369:1,2014-05-02T14:00:00Z,27.2070,-90.2830,60.4,7.8,167.0,99.0,'11111222,11111222,11144222' 
ADCP,ioos:station:wmo:42369:1,2014-05-02T14:20:00Z,27.2070,-90.2830,60.4,8.6,332.0,99.0,'11111222,11111222,11144222' 
ADCP,ioos:station:wmo:42369:1,2014-05-02T14:40:00Z,27.2070,-90.2830,60.4,8.6,332.0,99.0,'11111222,11111222,11144222' 
ADCP,ioos:station:wmo:42369:1,2014-05-02T15:00:00Z,27.2070,-90.2830,60.4,8.6,332.0,99.0,'11111222,11111222,11144222' 
ADCP,ioos:station:wmo:42369:1,2014-05-02T15:20:00Z,27.2070,-90.2830,60.4,7.7,36.0,99.0,'11111222,11111222,11144222' 
ADCP,ioos:station:wmo:42369:1,2014-05-02T15:40:00Z,27.2070,-90.2830,60.4,7.7,36.0,99.0,'11111222,11111222,11144222' 
ADCP,ioos:station:wmo:42369:1,2014-05-02T16:00:00Z,27.2070,-90.2830,60.4,6.4,52.0,99.0,'11111222,11111222,11144222' 
ADCP,ioos:station:wmo:42369:1,2014-05-02T16:20:00Z,27.2070,-90.2830,60.4,6.4,52.0,99.0,'11111222,11111222,11144222' 
ADCP,ioos:station:wmo:42369:1,2014-05-02T16:40:00Z,27.2070,-90.2830,60.4,6.2,46.0,99.0,'11111222,11111222,11144222' 
ADCP,ioos:station:wmo:42369:1,2014-05-02T17:00:00Z,27.2070,-90.2830,60.4,5.9,35.0,99.0,'11111222,11111222,11144222' 
ADCP,ioos:station:wmo:42369:1,2014-05-02T17:20:00Z,27.2070,-90.2830,60.4,5.9,35.0,99.0,'11111222,11111222,11144222' 
ADCP,ioos:station:wmo:42369:1,2014-05-02T17:40:00Z,27.2070,-90.2830,60.4,5.9,43.0,99.0,'11111222,11111222,11144222' 
ADCP,ioos:station:wmo:42369:1,2014-05-02T18:00:00Z,27.2070,-90.2830,60.4,6.5,29.0,99.0,'11111222,11111222,11144222' 
ADCP,ioos:station:wmo:42369:1,2014-05-02T18:20:00Z,27.2070,-90.2830,60.4,7.2,18.0,99.0,'11111222,11111222,11144222' 
ADCP,ioos:station:wmo:42369:1,2014-05-02T18:40:00Z,27.2070,-90.2830,60.4,7.0,18.0,99.0,'11111222,11111222,11144222' 
ADCP,ioos:station:wmo:42369:1,2014-05-03T15:40:00Z,27.2070,-90.2830,60.4,7.1,74.0,99.0,'11111222,11111222,11144222' 
ADCP,ioos:station:wmo:42369:1,2014-05-03T16:00:00Z,27.2070,-90.2830,60.4,7.6,345.0,99.0,'11111222,11111222,11144222' 
ADCP,ioos:station:wmo:42369:1,2014-05-03T16:20:00Z,27.2070,-90.2830,60.4,7.6,345.0,99.0,'11111222,11111222,11144222' 
ADCP,ioos:station:wmo:42369:1,2014-05-03T16:40:00Z,27.2070,-90.2830,60.4,7.8,343.0,99.0,'11111222,11111222,11144222' 
ADCP,ioos:station:wmo:42369:1,2014-05-03T17:00:00Z,27.2070,-90.2830,60.4,7.8,343.0,99.0,'11111222,11111222,11144222' 
ADCP,ioos:station:wmo:42369:1,2014-05-03T17:20:00Z,27.2070,-90.2830,60.4,6.9,314.0,99.0,'11111222,11111222,11144222' 
ADCP,ioos:station:wmo:42369:1,2014-05-03T17:40:00Z,27.2070,-90.2830,60.4,6.9,317.0,99.0,'11111222,11111222,11144222' 
ADCP,ioos:station:wmo:42369:1,2014-05-03T18:00:00Z,27.2070,-90.2830,60.4,6.9,317.0,99.0,'11111222,11111222,11144222' 
ADCP,ioos:station:wmo:42369:1,2014-05-03T18:20:00Z,27.2070,-90.2830,60.4,7.6,345.0,99.0,'11111222,11111222,11144222' 
ADCP,ioos:station:wmo:42369:1,2014-05-03T18:40:00Z,27.2070,-90.2830,60.4,7.0,345.0,99.0,'11111222,11111222,11144222' 
ADCP,ioos:station:wmo:42369:1,2014-05-03T19:00:00Z,27.2070,-90.2830,60.4,6.8,340.0,99.0,'11111222,11111222,11144222' 
ADCP,ioos:station:wmo:42369:1,2014-05-03T19:20:00Z,27.2070,-90.2830,60.4,6.8,340.0,99.0,'11111222,11111222,11144222' 
ADCP,ioos:station:wmo:42369:1,2014-05-03T19:40:00Z,27.2070,-90.2830,60.4,6.8,340.0,99.0,'11111222,11111222,11144222' 
ADCP,ioos:station:wmo:42369:1,2014-05-03T20:00:00Z,27.2070,-90.2830,60.4,6.7,345.0,99.0,'11111222,11111222,11144222' 
ADCP,ioos:station:wmo:42369:1,2014-05-03T20:20:00Z,27.2070,-90.2830,60.4,6.2,347.0,99.0,'11111222,11111222,11144222' 
ADCP,ioos:station:wmo:42369:1,2014-05-03T20:40:00Z,27.2070,-90.2830,60.4,6.0,343.0,99.0,'11111222,11111222,11144222' 
ADCP,ioos:station:wmo:42369:1,2014-05-03T21:00:00Z,27.2070,-90.2830,60.4,6.0,343.0,99.0,'11111222,11111222,11144222' 
ADCP,ioos:station:wmo:42369:1,2014-05-03T21:20:00Z,27.2070,-90.2830,60.4,5.6,342.0,99.0,'11111222,11111222,11144222' 
ADCP,ioos:station:wmo:42369:1,2014-05-03T21:40:00Z,27.2070,-90.2830,60.4,5.6,342.0,99.0,'11111222,11111222,11144222' 
ADCP,ioos:station:wmo:42369:1,2014-05-03T22:00:00Z,27.2070,-90.2830,60.4,5.2,343.0,99.0,'11111222,11111222,11144222' 
ADCP,ioos:station:wmo:42369:1,2014-05-03T22:20:00Z,27.2070,-90.2830,60.4,4.8,343.0,99.0,'11111222,11111222,11144222' 
ADCP,ioos:station:wmo:42369:1,2014-05-03T22:40:00Z,27.2070,-90.2830,60.4,4.8,343.0,99.0,'11111222,11111222,11144222' 
ADCP,ioos:station:wmo:42369:1,2014-05-03T23:00:00Z,27.2070,-90.2830,60.4,4.4,341.0,99.0,'11111222,11111222,11144222' 
ADCP,ioos:station:wmo:42369:1,2014-05-03T23:20:00Z,27.2070,-90.2830,60.4,4.4,341.0,99.0,'11111222,11111222,11144222' 
ADCP,ioos:station:wmo:42369:1,2014-05-03T23:40:00Z,27.2070,-90.2830,60.4,3.9,344.0,99.0,'11111222,11111222,11144222' 
ADCP,ioos:station:wmo:42369:1,2014-05-04T00:00:00Z,27.2070,-90.2830,60.4,3.9,344.0,99.0,'11111222,11111222,11144222' 
ADCP,ioos:station:wmo:42369:1,2014-05-04T00:20:00Z,27.2070,-90.2830,60.4,3.9,344.0,99.0,'11111222,11111222,11144222' 
ADCP,ioos:station:wmo:42369:1,2014-05-04T00:40:00Z,27.2070,-90.2830,60.4,2.6,333.0,99.0,'11111222,11111222,11144222' 
ADCP,ioos:station:wmo:42369:1,2014-05-04T01:00:00Z,27.2070,-90.2830,60.4,2.9,326.0,99.0,'11111222,11111222,11144222' 
ADCP,ioos:station:wmo:42369:1,2014-05-04T01:20:00Z,27.2070,-90.2830,60.4,2.2,324.0,99.0,'11111222,11111222,11144222' 
ADCP,ioos:station:wmo:42369:1,2014-05-04T01:40:00Z,27.2070,-90.2830,60.4,2.2,324.0,99.0,'11111222,11111222,11144222' 
ADCP,ioos:station:wmo:42369:1,2014-05-04T02:00:00Z,27.2070,-90.2830,60.4,1.8,336.0,99.0,'11111222,11111222,11144222' 
ADCP,ioos:station:wmo:42369:1,2014-05-04T02:20:00Z,27.2070,-90.2830,60.4,1.8,336.0,99.0,'11111222,11111222,11144222' 
ADCP,ioos:station:wmo:42369:1,2014-05-04T02:40:00Z,27.2070,-90.2830,60.4,1.1,280.0,99.0,'11111222,11111222,11144222' 
ADCP,ioos:station:wmo:42369:1,2014-05-04T03:00:00Z,27.2070,-90.2830,60.4,1.1,280.0,99.0,'11111222,11111222,11144222' 
ADCP,ioos:station:wmo:42369:1,2014-05-04T03:20:00Z,27.2070,-90.2830,60.4,1.1,280.0,99.0,'11111222,11111222,11144222' 
ADCP,ioos:station:wmo:42369:1,2014-05-04T03:40:00Z,27.2070,-90.2830,60.4,1.1,280.0,99.0,'11111222,11111222,11144222' 
ADCP,ioos:station:wmo:42369:1,2014-05-04T04:00:00Z,27.2070,-90.2830,60.4,1.1,280.0,99.0,'11111222,11111222,11144222' 
ADCP,ioos:station:wmo:42369:1,2014-05-04T04:20:00Z,27.2070,-90.2830,60.4,0.0,53.0,99.0,'11111222,11111222,11144222' 
ADCP,ioos:station:wmo:42369:1,2014-05-04T04:40:00Z,27.2070,-90.2830,60.4,0.0,170.0,99.0,'11111222,11111222,11144222' 
ADCP,ioos:station:wmo:42369:1,2014-05-04T05:00:00Z,27.2070,-90.2830,60.4,0.0,170.0,99.0,'11111222,11111222,11144222' 
ADCP,ioos:station:wmo:42369:1,2014-05-04T05:20:00Z,27.2070,-90.2830,60.4,0.1,220.0,99.0,'11111222,11111222,11144222' 
ADCP,ioos:station:wmo:42369:1,2014-05-04T05:40:00Z,27.2070,-90.2830,60.4,0.1,220.0,99.0,'11111222,11111222,11144222' 
ADCP,ioos:station:wmo:42369:1,2014-05-04T06:00:00Z,27.2070,-90.2830,60.4,0.1,220.0,99.0,'11111222,11111222,11144222' 
ADCP,ioos:station:wmo:42369:1,2014-05-04T06:20:00Z,27.2070,-90.2830,60.4,0.5,245.0,99.0,'11111222,11111222,11144222' 
ADCP,ioos:station:wmo:42369:1,2014-05-04T06:40:00Z,27.2070,-90.2830,60.4,0.5,245.0,99.0,'11111222,11111222,11144222' 
ADCP,ioos:station:wmo:42369:1,2014-05-04T07:00:00Z,27.2070,-90.2830,60.4,0.5,231.0,99.0,'11111222,11111222,11144222' 
ADCP,ioos:station:wmo:42369:1,2014-05-04T07:20:00Z,27.2070,-90.2830,60.4,0.8,229.0,99.0,'11111222,11111222,11144222' 
ADCP,ioos:station:wmo:42369:1,2014-05-04T07:40:00Z,27.2070,-90.2830,60.4,0.8,229.0,99.0,'11111222,11111222,11144222' 
ADCP,ioos:station:wmo:42369:1,2014-05-04T08:00:00Z,27.2070,-90.2830,60.4,0.7,243.0,99.0,'11111222,11111222,11144222' 
ADCP,ioos:station:wmo:42369:1,2014-05-04T08:20:00Z,27.2070,-90.2830,60.4,0.7,221.0,99.0,'11111222,11111222,11144222' 
ADCP,ioos:station:wmo:42369:1,2014-05-04T08:40:00Z,27.2070,-90.2830,60.4,0.8,232.0,99.0,'11111222,11111222,11144222' 
ADCP,ioos:station:wmo:42369:1,2014-05-04T09:00:00Z,27.2070,-90.2830,60.4,0.8,232.0,99.0,'11111222,11111222,11144222' 
ADCP,ioos:station:wmo:42369:1,2014-05-04T09:20:00Z,27.2070,-90.2830,60.4,2.3,246.0,99.0,'11111222,11111222,11144222' 
ADCP,ioos:station:wmo:42369:1,2014-05-04T09:40:00Z,27.2070,-90.2830,60.4,2.1,251.0,99.0,'11111222,11111222,11144222' 
ADCP,ioos:station:wmo:42369:1,2014-05-04T10:00:00Z,27.2070,-90.2830,60.4,2.1,251.0,99.0,'11111222,11111222,11144222' 
ADCP,ioos:station:wmo:42369:1,2014-05-04T10:20:00Z,27.2070,-90.2830,60.4,2.0,253.0,99.0,'11111222,11111222,11144222' 
ADCP,ioos:station:wmo:42369:1,2014-05-04T10:40:00Z,27.2070,-90.2830,60.4,2.0,253.0,99.0,'11111222,11111222,11144222' 
ADCP,ioos:station:wmo:42369:1,2014-05-04T11:00:00Z,27.2070,-90.2830,60.4,2.0,253.0,99.0,'11111222,11111222,11144222' 
ADCP,ioos:station:wmo:42369:1,2014-05-04T11:20:00Z,27.2070,-90.2830,60.4,2.0,253.0,99.0,'11111222,11111222,11144222' 
ADCP,ioos:station:wmo:42369:1,2014-05-04T11:40:00Z,27.2070,-90.2830,60.4,2.3,253.0,99.0,'11111222,11111222,11144222' 
ADCP,ioos:station:wmo:42369:1,2014-05-04T12:00:00Z,27.2070,-90.2830,60.4,2.1,253.0,99.0,'11111222,11111222,11144222' 
ADCP,ioos:station:wmo:42369:1,2014-05-04T12:20:00Z,27.2070,-90.2830,60.4,2.1,253.0,99.0,'11111222,11111222,11144222' 
ADCP,ioos:station:wmo:42369:1,2014-05-04T12:40:00Z,27.2070,-90.2830,60.4,2.1,253.0,99.0,'11111222,11111222,11144222' 
ADCP,ioos:station:wmo:42369:1,2014-05-04T13:00:00Z,27.2070,-90.2830,60.4,2.1,253.0,99.0,'11111222,11111222,11144222' 
ADCP,ioos:station:wmo:42369:1,2014-05-04T13:20:00Z,27.2070,-90.2830,60.4,2.1,253.0,99.0,'11111222,11111222,11144222' 
ADCP,ioos:station:wmo:42369:1,2014-05-04T13:40:00Z,27.2070,-90.2830,60.4,2.1,253.0,99.0,'11111222,11111222,11144222' 
ADCP,ioos:station:wmo:42369:1,2014-05-04T14:00:00Z,27.2070,-90.2830,60.4,1.8,252.0,99.0,'11111222,11111222,11144222' 
ADCP,ioos:station:wmo:42369:1,2014-05-04T14:20:00Z,27.2070,-90.2830,60.4,1.0,234.0,99.0,'11111222,11111222,11144222' 
ADCP,ioos:station:wmo:42369:1,2014-05-04T14:40:00Z,27.2070,-90.2830,60.4,1.0,234.0,99.0,'11111222,11111222,11144222' 
ADCP,ioos:station:wmo:42369:1,2014-05-04T15:00:00Z,27.2070,-90.2830,60.4,1.0,234.0,99.0,'11111222,11111222,11144222' 
ADCP,ioos:station:wmo:42369:1,2014-05-04T15:20:00Z,27.2070,-90.2830,60.4,1.0,234.0,99.0,'11111222,11111222,11144222' 
ADCP,ioos:station:wmo:42369:1,2014-05-04T15:40:00Z,27.2070,-90.2830,60.4,2.5,248.0,99.0,'11111222,11111222,11144222' 